Belize, Belize

7:15 AM CST on April 25, 2017 (GMT -0600)
Philip S W Goldson International

Weather History for MZBZ - November, 2012

Change the Weather History Date:

Monday, November 12, 2012

  Actual Average Record
Temperature  
Mean Temperature 80 °F -  
Max Temperature 85 °F 84 °F 89 °F (2002)
Min Temperature 75 °F 70 °F 68 °F (2007)
Cooling Degree Days 15    
Growing Degree Days 30 (Base 50)    
Moisture  
Dew Point 73 °F    
Average Humidity 75    
Maximum Humidity 94    
Minimum Humidity 59    
Precipitation  
Precipitation 0.01 in 0.24 in - ()
Sea Level Pressure  
Sea Level Pressure 29.99 in    
Wind  
Wind Speed 6 mph ()    
Max Wind Speed 12 mph    
Max Gust Speed -    
Visibility 8.2 miles    
Events      
Averages and records for this station are not official NWS values.
T = Trace of Precipitation, MM = Missing Value Source: Averaged Metar Reports

Daily Weather History Graph

Daily Weather History Graph

Search for Another Location

Airport or City:

Trip Planner

Search our weather history database for the weather conditions in past years. The results will help you decide how hot, cold, wet, or windy it might be!

Date:

Astronomy

Nov. 12, 2012 Rise Set
Actual Time 5:57 AM CST 5:17 PM CST
Civil Twilight 5:34 AM CST 5:40 PM CST
Nautical Twilight 5:08 AM CST 6:06 PM CST
Astronomical Twilight 4:42 AM CST 6:32 PM CST
Moon 4:29 AM CST (11/12) 4:18 PM CST (11/12)
Length of Visible Light 12h 06m
Length of Day
11h 20m
Waning Crescent, 2% of the Moon is Illuminated
Nov 12
Waning Crescent
Nov 13
New
Nov 20
First Quarter
Nov 28
Full
Dec 6
Last Quarter

Hourly Weather History & Observations

Time (CST) Temp. Heat Index Dew Point Humidity Pressure Visibility Wind Dir Wind Speed Gust Speed Precip Events Conditions
12:00 AM 80 °F - 74 °F 76% 30.00 in 12 mi East 8.1 mph - -   Partly Cloudy
12:00 AM 78.8 °F - 73.4 °F 83% 29.98 in 6.2 mi East 8.1 mph - N/A   Partly Cloudy
3:00 AM 79 °F - 74 °F 81% 29.96 in 12 mi East 3.5 mph - -   Mostly Cloudy
5:00 AM 75.2 °F - 73.4 °F 94% 29.95 in 6.2 mi East 2.3 mph - N/A   Mostly Cloudy
6:00 AM 76 °F - 74 °F 90% 29.97 in 12 mi NNW 3.5 mph - -   Partly Cloudy
6:00 AM 75.2 °F - 73.4 °F 94% 29.95 in 6.2 mi NNW 3.5 mph - N/A   Mostly Cloudy
7:00 AM 77.0 °F - 75.2 °F 94% 29.98 in 6.2 mi Calm Calm - N/A   Mostly Cloudy
8:00 AM 80.6 °F 85.4 °F 73.4 °F 79% 30.01 in 6.2 mi East 6.9 mph - N/A   Mostly Cloudy
9:00 AM 82 °F - 74 °F 69% 30.04 in 12 mi East 8.1 mph - -   Mostly Cloudy
9:00 AM 82.4 °F 88.2 °F 73.4 °F 74% 30.03 in 6.2 mi East 8.1 mph - N/A   Mostly Cloudy
10:00 AM 82.4 °F 88.2 °F 73.4 °F 74% 30.05 in 6.2 mi ENE 9.2 mph - N/A   Mostly Cloudy
11:00 AM 86.0 °F 93.4 °F 73.4 °F 66% 30.03 in 6.2 mi ENE 10.4 mph - N/A   Scattered Clouds
12:00 PM 85 °F - 73 °F 59% 30.01 in 12 mi ENE 10.4 mph - -   Partly Cloudy
12:00 PM 84.2 °F 90.9 °F 73.4 °F 70% 30.01 in 6.2 mi ENE 10.4 mph - N/A   Scattered Clouds
1:00 PM 86.0 °F 91.8 °F 71.6 °F 62% 29.98 in 6.2 mi ENE 11.5 mph - N/A   Scattered Clouds
2:00 PM 86.0 °F 93.4 °F 73.4 °F 66% 29.96 in 6.2 mi ENE 10.4 mph - N/A   Partly Cloudy
3:00 PM 84 °F - 73 °F 62% 29.96 in 12 mi ENE 10.4 mph - -   Partly Cloudy
3:00 PM 84.2 °F 90.9 °F 73.4 °F 70% 29.95 in 6.2 mi ENE 10.4 mph - N/A   Scattered Clouds
4:00 PM 84.2 °F 90.9 °F 73.4 °F 70% 29.95 in 6.2 mi ENE 8.1 mph - N/A   Partly Cloudy
5:00 PM 82.4 °F 87.2 °F 71.6 °F 70% 29.96 in 6.2 mi ENE 6.9 mph - N/A   Partly Cloudy
6:00 PM 81 °F - 74 °F 73% 29.99 in 12 mi East 4.6 mph - -   Scattered Clouds
6:00 PM 80.6 °F 85.4 °F 73.4 °F 79% 29.98 in 6.2 mi East 4.6 mph - N/A   Partly Cloudy
9:00 PM 79 °F - 74 °F 79% 30.04 in 12 mi NNE 3.5 mph - -   Scattered Clouds